Location: Ab? ar R?sh Ba?r?
(24.1861°N, 32.8847°E)
Time: 22:50:37
(UTC+00:00)

SJ-11-01 - Pass Details

Date: 24 October 2021
Orbit: 684 x 700 km, 97.9° (Epoch: 05 December)

Event Time Altitude Azimuth Distance (km) Brightness Sun altitude
Rises 16:24:18 0° 167° (SSE) 3,037 7.5 -16.5°
Reaches altitude 10° 16:26:31 10° 167° (SSE) 2,125 6.7 -17.0°
Maximum altitude 16:31:11 89° 70° (ENE) 692 4.2 -18.1°
Drops below altitude 10° 16:35:53 10° 349° (NNW) 2,144 6.9 -19.2°
Sets 16:38:08 0° 349° (N) 3,065 7.7 -19.7°
